Torna al catalogo

STARLINK-5729

AttivoComunicazioniVLEO
NORAD 55596·PAYLOAD·🇺🇸 United States

Lanciato Feb 12, 2023 da Cape Canaveral Space Force Station

Loading…

Prossimi Passaggi (prossime 24 ore)

TLE

AggiornatoSource: CelesTrak SupGP

Epoca: Sep 14, 2026, 21:51 UTC

1 55596C 23020AD  26257.91090278 -.00000391  00000+0 -14179-4 0  2572
2 55596  43.0040  16.4608 0001737 281.1268  60.8142 15.27579114    18

Traccia STARLINK-5729 in tempo reale con AllMySat

Download on the App Store